{"data":{"norad_id":45384,"epoch":"2026-09-20T06:00:02.000160Z","epoch_age_seconds":35892,"freshness":"FRESH","line1":"1 45384U 20019AA  26263.25002315  .00047205  00000+0  19460-3 0  9993","line2":"2 45384  53.0365 248.3361 0005976  51.7313 219.0094 15.85438296  6004","mean_motion":15.85438296,"eccentricity":0.0005976,"inclination_deg":53.0365,"raan_deg":248.3361,"arg_perigee_deg":51.7313,"mean_anomaly_deg":219.0094,"bstar":0.0001946,"rev_number":600,"period_min":90.826618962912,"perigee_km":311.09101308875,"apogee_km":319.09075905819,"semimajor_km":6693.2278860735,"source":"CELESTRAK","updated_at":"2026-09-20T09:00:38.232069Z"}}